Tracking 21992 objects as of 28-Nov-2020
HD Live streaming from Space Station
objects crossing your sky now

STARLINK-1933

Track STARLINK-1933 now!
10-day predictions
STARLINK-1933 is classified as:


NORAD ID: 46791
Int'l Code: 2020-074BE
Perigee: 385.7 km
Apogee: 387.2 km
Inclination: 53.1 °
Period: 92.1 minutes
Semi major axis: 6757 km
RCS: Unknown
Launch date: October 24, 2020
Source: United States (US)
Launch site: AIR FORCE EASTERN TEST RANGE (AFETR)
aabbcc
Your satellite tracking list
Your tracking list is empty




NASA's NSSDC Master Catalog

Two Line Element Set (TLE):
1 46791U 20074BE  20333.58335648 -.00445866 +00000-0 -51097-2 0  9992
2 46791 053.0544 348.9664 0001094 049.9104 081.3881 15.62883577001834
Source of the keplerian elements: AFSPC